Location: Hemaruka
(51.7801°N, 111.0917°W)
Time: 07:22:07
(UTC+00:00)

NOAA 15 - Pass Details

Date: 15 December 2023
Orbit: 797 x 810 km, 98.6° (Epoch: 04 March)

Event Time Altitude Azimuth Distance (km) Brightness Sun altitude
Rises 01:42:05 0° 154° (SSE) 3,313 7.6 -21.5°
Reaches altitude 10° 01:44:25 10° 152° (SSE) 2,384 6.9 -21.9°
Maximum altitude 01:49:39 69° 70° (ENE) 864 4.5 -22.7°
Drops below altitude 10° 01:54:54 10° 349° (N) 2,392 7.1 -23.5°
Sets 01:57:15 0° 347° (NNW) 3,325 7.9 -23.8°
